This is the latest recevied weather packets stored in our database for station/object KC3JUG-3. If no packets are shown the sender has not sent any weather packets the latest 10 day(s).
| Time | Temp. | Humidity | Pressure | Rain* | Wind** | Luminosity | Snow |
|---|---|---|---|---|---|---|---|
| 1777633255 | 3.89° C | 92% | 1015.8 hPa | 0 mm | - | - | - |
| 1777632949 | 3.89° C | 93% | 1015.8 hPa | 0 mm | - | - | - |
| 1777632356 | 3.33° C | 94% | 1015.7 hPa | 0 mm | - | - | - |
| 1777631452 | 3.33° C | 94% | 1015.5 hPa | 0 mm | - | - | - |
| 1777629047 | 3.33° C | 93% | 1015.6 hPa | 0 mm | - | - | - |
| 1777627548 | 3.33° C | 92% | 1015.4 hPa | 0 mm | - | - | - |
| 1777626647 | 3.33° C | 92% | 1015.3 hPa | 0 mm | - | - | - |
| 1777626060 | 3.89° C | 92% | 1015.3 hPa | 0 mm | - | - | - |
| 1777624848 | 3.89° C | 92% | 1015.1 hPa | 0 mm | - | - | - |
| 1777623347 | 3.89° C | 91% | 1014.9 hPa | 0 mm | - | - | - |
| 1777621552 | 4.44° C | 89% | 1014.9 hPa | 0 mm | - | - | - |
| 1777621250 | 4.44° C | 89% | 1014.8 hPa | 0 mm | - | - | - |
| 1777617647 | 5.56° C | 86% | 1014.6 hPa | 0 mm | - | - | - |
| 1777617347 | 5.56° C | 87% | 1014.7 hPa | 0 mm | - | - | - |
| 1777615848 | 5.56° C | 85% | 1014.7 hPa | 0 mm | - | - | - |
| 1777614047 | 6.11° C | 84% | 1014.5 hPa | 0 mm | - | - | - |
| 1777613747 | 6.11° C | 84% | 1014.6 hPa | 0 mm | - | - | - |
| 1777613451 | 6.11° C | 84% | 1014.6 hPa | 0 mm | - | - | - |
| 1777613147 | 6.67° C | 84% | 1014.5 hPa | 0 mm | - | - | - |
| 1777610147 | 7.22° C | 81% | 1014.3 hPa | 0 mm | - | - | - |
| 1777609547 | 7.22° C | 80% | 1014.3 hPa | 0 mm | - | - | - |
| 1777608646 | 7.78° C | 79% | 1014.2 hPa | 0 mm | - | - | - |
| 1777606292 | 8.89° C | 77% | 1014.1 hPa | 0 mm | - | - | - |
| 1777605947 | 8.89° C | 77% | 1014 hPa | 0 mm | - | - | - |
| 1777605051 | 8.89° C | 76% | 1014 hPa | 0 mm | - | - | - |
* Rain latest hour (hover to see other rain measurements)
** Current wind speed in m/s (hover to see current wind gust speed)